GFSNGP_850_spd_156.txt.gz
Wind_Speed
12 9 9 6 7 15 13 13 8 15 12 15 11 14 22 26 24 21 17 10 5 6 11 15 19 21 22 23 25 27 28 29 30 30 31 31 35 36 36 33 32 31 32 33
8 19 12 7 9 7 10 11 10 14 21 18 13 21 20 23 22 18 13 8 3 5 11 16 20 23 24 24 25 27 27 28 29 30 31 32 35 37 37 35 32 31 31 33
10 9 6 6 18 12 6 6 9 13 24 5 3 12 21 23 23 20 13 8 2 5 11 17 20 22 23 24 24 25 25 27 29 30 31 33 35 37 37 36 34 32 31 32
5 1 8 5 2 12 16 20 14 14 2 7 8 11 18 25 23 17 12 7 2 5 10 15 18 20 21 21 22 23 24 26 28 31 32 33 35 37 36 36 34 33 33 32
4 4 5 8 5 7 8 13 15 15 5 18 26 25 14 15 16 15 11 5 2 7 12 15 17 18 19 20 21 22 23 26 28 30 32 33 35 37 35 37 34 34 32 33
3 4 6 5 4 2 4 7 6 6 14 19 22 7 4 17 16 12 7 2 4 10 14 15 15 16 18 19 20 22 23 25 26 28 29 32 33 34 34 35 34 36 34 33
9 5 6 6 6 4 4 6 2 12 20 19 4 5 29 23 16 9 3 3 7 11 12 13 13 14 16 18 19 21 21 23 25 25 28 30 31 32 34 36 36 39 39 38
5 5 8 6 1 6 3 4 14 21 24 27 31 33 29 21 16 8 2 4 6 7 9 10 11 13 15 17 19 21 20 22 24 25 26 29 32 32 33 36 38 41 43 44
7 5 2 3 4 4 10 20 17 28 27 28 32 29 25 20 13 7 2 2 5 6 7 8 11 14 16 18 20 21 22 23 24 24 24 26 32 34 34 36 38 41 43 45
2 2 2 9 11 12 18 22 23 26 25 23 30 25 20 15 11 7 4 4 4 4 5 9 11 13 16 19 20 21 22 22 22 23 25 26 27 31 32 34 36 37 40 42
2 2 12 10 15 23 27 27 28 24 24 24 25 23 18 13 9 8 7 5 3 5 8 11 13 14 16 19 21 22 21 22 23 24 25 26 27 28 30 29 28 30 32 34
6 15 6 10 22 26 29 23 22 25 24 20 16 19 14 14 11 8 7 5 3 6 9 11 12 14 15 18 21 22 22 23 24 24 25 26 27 28 27 27 27 26 25 28
8 23 10 26 25 19 23 25 24 23 21 22 18 15 14 14 12 9 6 5 6 9 10 11 11 12 14 17 20 21 23 23 23 25 26 27 28 29 31 30 29 29 30 30
22 23 22 29 22 22 27 26 23 22 20 18 19 16 14 13 12 9 8 9 9 7 6 8 8 11 15 17 19 20 21 22 23 24 25 26 27 28 29 33 36 37 34 33
28 20 33 28 27 29 28 27 25 24 22 21 16 14 12 12 12 10 9 8 7 4 5 7 8 11 13 15 18 20 22 23 23 23 24 24 26 27 29 31 33 35 37 35
17 18 33 32 34 32 29 25 23 23 21 19 16 13 12 10 10 10 9 8 5 6 8 8 9 12 13 14 16 18 20 21 23 24 25 26 27 29 30 31 33 34 36 37
34 23 31 34 36 32 26 22 19 21 20 17 15 13 12 11 11 10 9 9 8 7 7 8 11 12 13 14 16 18 19 21 22 23 26 27 27 28 29 30 32 33 33 32
22 28 33 40 37 32 26 22 20 19 18 16 14 13 12 11 10 11 10 9 7 6 6 9 10 11 12 14 15 17 18 19 21 23 24 25 26 26 28 29 31 32 33 32
20 33 33 34 30 28 26 23 20 17 15 15 15 15 13 11 11 10 9 7 5 4 7 9 9 9 11 13 14 15 16 17 19 20 21 22 24 26 27 29 29 30 31 32
26 30 30 28 25 23 23 20 18 17 17 17 17 16 15 13 11 10 9 5 5 6 7 7 8 9 11 12 13 14 15 16 18 19 20 22 23 24 25 26 27 28 29 30
29 28 27 25 25 22 19 18 18 18 19 17 16 16 15 14 13 10 7 4 5 5 5 6 7 8 10 12 12 14 14 15 17 19 20 20 21 22 23 24 25 26 27 28
29 29 28 26 24 23 19 17 17 18 20 20 17 16 15 14 12 9 7 5 5 5 4 4 6 8 9 11 12 13 13 15 16 17 19 20 21 21 22 23 24 25 25 25
29 27 25 23 21 20 20 18 18 18 19 18 17 15 13 11 10 8 6 5 4 3 3 3 6 8 9 10 11 12 13 14 16 17 18 18 19 20 21 21 22 22 23 25
26 24 21 20 20 20 21 21 19 18 16 16 14 13 10 10 9 8 7 5 4 2 2 3 5 7 8 9 11 11 12 14 15 16 17 18 18 19 19 20 20 20 21 22
23 22 21 20 19 19 20 22 23 22 19 17 16 14 12 10 7 6 6 5 4 3 3 3 4 6 7 7 9 10 11 13 14 14 15 16 18 19 20 20 20 21 22 22
21 20 19 18 17 19 21 22 22 21 19 18 16 15 13 9 7 7 6 6 4 3 2 2 2 4 7 7 8 10 11 12 13 14 15 16 16 17 18 20 21 22 22 23
20 19 20 19 18 18 19 19 20 19 17 15 14 14 12 10 9 8 7 5 4 2 0 0 1 3 6 9 8 10 11 12 13 14 15 16 17 18 19 20 22 23 24 24

GFSNGP_850_spd_159.txt.gz
Wind_Speed
16 16 13 15 15 17 12 17 11 19 19 23 14 15 21 21 18 20 19 16 11 6 4 7 11 13 16 18 20 22 22 23 24 25 25 27 29 31 32 32 31 29 28 27
11 12 10 17 19 17 19 18 19 21 21 19 6 17 19 25 24 21 17 14 10 5 4 10 14 16 18 19 21 21 21 22 23 25 27 29 31 31 32 32 31 30 29 28
10 3 7 9 19 17 14 15 12 14 17 15 11 11 22 23 26 25 20 16 10 3 6 10 14 17 18 18 20 20 20 21 23 26 28 30 31 32 32 33 31 31 31 30
9 7 11 7 4 7 12 16 18 18 17 7 2 4 6 14 22 22 20 16 6 1 6 10 14 16 17 18 18 19 21 22 24 26 27 29 29 31 30 31 31 31 32 30
7 10 14 17 10 8 8 10 12 17 14 6 15 12 12 13 19 24 18 9 6 3 6 10 13 14 16 18 18 19 20 23 25 26 27 28 28 30 29 30 30 30 30 31
5 6 8 4 2 2 6 9 4 6 9 16 18 8 5 16 22 19 14 10 5 2 7 10 11 12 15 17 18 19 21 22 23 24 24 24 27 29 29 29 28 30 33 33
13 11 10 8 5 3 7 3 2 3 12 22 7 1 25 23 20 18 13 7 1 3 6 8 10 12 13 16 19 20 20 20 20 21 22 23 23 27 27 30 30 33 34 36
9 10 14 2 5 8 2 3 4 11 14 14 18 24 27 24 20 15 10 4 3 3 5 8 10 12 15 17 19 19 19 19 19 21 21 23 23 28 28 30 31 33 35 40
7 5 1 3 4 9 5 9 10 16 19 23 25 25 23 20 17 12 7 4 4 5 7 9 12 14 15 18 19 18 17 18 19 20 20 22 26 26 26 30 35 36 38 41
2 4 2 3 3 4 7 11 17 20 24 26 30 24 23 19 14 10 8 7 7 7 7 9 12 14 16 18 19 17 16 18 20 20 22 24 21 24 26 31 31 33 37 38
5 2 5 4 5 10 16 22 26 23 24 26 29 25 21 17 13 11 9 8 7 7 8 10 12 14 16 18 18 19 17 18 22 23 23 23 25 23 24 25 27 29 31 31
5 10 5 8 14 18 25 27 26 26 25 24 22 23 18 16 13 11 10 9 8 8 9 11 12 13 14 16 18 20 22 23 24 23 24 24 25 26 25 25 27 27 27 28
8 13 8 21 20 22 27 24 25 25 24 25 20 17 15 16 13 11 11 10 10 10 10 11 11 11 13 16 19 21 22 22 23 24 25 25 25 26 29 30 30 31 31 31
14 18 15 21 22 24 25 25 25 24 22 20 19 18 16 15 15 12 12 11 10 10 10 10 9 10 13 15 17 18 19 21 23 24 25 26 27 26 27 29 34 37 35 35
25 12 21 28 28 26 27 28 27 24 22 21 18 17 16 16 15 13 12 12 11 9 8 8 7 9 11 13 15 17 19 21 22 22 24 25 26 27 29 30 30 33 37 38
17 13 28 35 31 30 29 27 26 25 23 22 20 18 16 15 14 14 13 12 10 9 8 8 7 9 10 11 14 16 18 20 22 24 25 26 27 29 28 29 29 30 36 40
26 21 31 33 35 33 30 26 23 25 24 21 20 18 17 16 15 14 13 12 11 9 8 7 8 9 9 11 13 15 17 19 21 22 24 25 26 27 27 27 29 29 30 35
19 28 37 39 42 35 29 25 23 23 22 21 19 18 17 16 15 15 13 13 10 8 6 6 8 8 8 10 12 14 16 18 19 21 23 24 25 26 27 27 29 30 30 33
15 25 32 36 36 32 29 26 23 22 21 19 19 18 17 15 14 14 13 12 10 7 6 6 6 6 8 10 11 13 14 16 18 19 21 22 23 25 26 27 28 29 30 32
22 26 31 36 32 28 27 24 22 21 21 21 20 19 19 17 15 14 13 11 8 7 6 5 5 6 7 9 10 12 14 15 16 18 19 20 22 23 24 25 26 28 30 30
22 27 33 33 30 25 22 22 22 23 22 19 18 18 17 17 16 13 12 10 9 7 5 4 4 5 6 7 9 11 13 14 15 17 18 19 20 21 22 23 25 26 27 29
27 30 32 30 27 25 22 21 20 20 21 20 19 18 17 17 16 14 13 9 8 7 5 4 3 3 5 7 8 10 11 13 14 15 16 17 19 20 21 22 23 24 26 27
29 30 29 27 26 24 23 20 19 19 20 21 20 18 14 13 13 12 10 10 8 7 5 3 2 2 4 6 7 9 10 12 13 14 15 17 18 19 20 21 22 23 25 26
28 27 26 25 23 24 24 23 20 18 17 17 17 16 14 14 14 12 9 9 7 6 4 3 2 3 4 5 7 8 10 11 12 13 14 16 17 18 18 19 21 23 24 25
27 26 25 24 23 23 21 22 23 22 21 21 20 17 15 13 11 10 9 8 6 5 4 3 3 3 3 4 6 8 9 10 11 12 13 15 16 17 19 20 21 23 24 24
24 23 22 20 20 21 21 23 24 25 24 23 22 19 17 14 10 10 10 8 7 5 4 3 2 0 3 5 6 7 9 9 11 12 14 15 16 17 19 20 22 23 25 26
21 19 19 20 20 19 19 21 22 24 23 21 19 19 17 14 11 11 10 9 7 6 5 4 3 3 4 6 6 8 9 9 11 13 15 16 18 19 20 22 23 25 26 27

GFSNGP_850_spd_162.txt.gz
Wind_Speed
19 18 15 18 21 21 15 17 13 20 20 25 20 12 17 18 21 23 23 20 16 14 9 3 3 7 11 12 13 15 14 15 17 18 18 19 22 22 22 23 22 24 24 25
17 16 16 21 24 23 21 23 23 24 27 25 29 7 15 19 21 23 21 20 16 12 8 1 5 9 11 12 13 12 12 13 14 16 18 22 21 21 21 22 22 23 22 24
15 10 8 9 21 21 17 23 22 20 26 19 16 9 14 17 20 20 21 19 16 12 6 1 5 8 9 10 10 10 11 12 14 17 20 21 20 21 22 22 23 23 23 25
12 12 16 14 14 11 14 18 18 19 23 18 17 3 2 9 15 19 22 21 16 10 2 2 5 7 8 9 9 10 11 13 14 19 18 18 19 22 22 22 23 23 23 25
12 13 17 20 16 15 13 19 14 18 18 18 10 9 9 7 13 20 21 17 14 7 4 1 3 5 6 7 9 10 13 14 14 16 18 19 19 21 22 23 23 23 22 25
14 15 19 19 4 6 8 16 13 13 12 8 13 7 5 15 20 21 19 15 12 7 3 2 4 5 6 8 10 11 12 13 13 15 16 17 19 20 22 22 21 22 23 24
16 17 18 21 18 10 12 10 3 2 4 10 7 4 24 22 21 19 17 14 11 8 7 6 6 7 7 8 10 11 12 12 13 15 15 17 19 18 20 21 21 23 23 24
13 19 20 16 11 19 6 3 3 2 5 13 19 24 25 23 21 18 15 12 10 9 8 7 7 7 8 10 10 10 11 12 13 14 16 18 17 18 18 21 22 24 25 26
8 6 5 2 8 4 5 6 3 8 12 21 25 25 24 22 20 16 13 11 10 10 9 8 9 9 9 10 11 10 10 12 14 15 15 16 17 18 19 21 23 25 27 28
12 12 14 8 4 2 4 7 3 11 18 22 27 25 23 20 18 15 12 12 11 10 10 9 9 9 10 10 11 10 12 13 13 14 15 16 16 17 18 21 23 25 28 28
14 14 6 10 8 4 1 9 13 16 18 24 26 23 21 19 16 14 13 12 11 10 10 10 9 9 10 11 12 11 12 13 14 14 16 15 15 16 17 18 21 23 26 25
7 5 9 9 9 8 14 17 18 22 24 21 22 22 20 17 15 14 14 12 12 11 10 10 9 9 11 12 13 13 12 13 15 13 14 15 15 15 17 19 20 23 24 25
14 9 10 5 11 15 17 19 19 20 21 24 20 20 18 19 16 17 15 13 13 12 11 10 9 9 11 12 13 14 14 12 12 13 14 15 16 17 19 19 19 23 29 29
7 10 10 18 13 17 20 20 21 20 21 21 21 18 18 19 18 16 15 14 14 13 11 9 9 9 10 12 12 12 13 14 12 13 13 14 15 16 17 19 22 24 27 30
15 14 11 20 23 21 21 24 24 22 22 20 18 19 18 19 18 17 16 16 14 12 10 9 7 9 9 10 10 12 13 13 11 11 12 14 14 16 17 18 20 22 25 29
15 9 19 23 28 26 25 24 24 23 21 21 20 18 17 17 17 17 16 15 12 12 10 9 8 8 8 8 9 9 11 14 13 11 12 13 14 15 17 18 19 21 23 28
19 18 22 24 31 28 28 23 22 23 23 21 20 20 19 18 18 17 17 16 14 12 10 9 7 7 6 6 8 7 7 10 13 11 13 13 13 14 16 17 19 20 21 24
17 18 24 35 34 30 26 22 23 23 22 22 22 21 20 19 18 19 18 16 14 11 9 7 7 5 5 5 6 6 7 8 10 10 11 12 13 13 14 16 17 19 20 22
17 19 25 30 27 27 26 25 24 24 24 22 21 20 19 18 19 18 17 15 13 9 8 7 6 4 3 3 5 6 7 7 8 10 10 12 11 12 14 15 16 17 19 20
19 20 26 27 26 28 29 27 25 22 22 22 22 21 22 20 19 18 17 14 12 10 9 7 5 3 2 3 4 4 5 7 7 9 11 10 11 11 12 14 15 16 18 19
23 26 30 32 32 28 25 24 24 24 23 21 20 21 21 21 19 17 15 10 11 10 9 7 5 3 2 2 2 3 5 6 7 8 9 10 11 11 12 13 14 15 17 18
26 29 31 33 30 27 24 24 22 21 21 22 21 21 21 21 20 18 16 11 12 10 8 6 6 4 2 2 1 2 4 5 6 7 9 10 11 11 11 13 14 15 16 18
25 27 30 32 28 26 26 23 21 19 20 21 22 21 20 19 18 16 15 14 12 10 8 8 6 4 3 2 1 2 4 5 6 7 8 10 10 11 12 14 15 15 17 20
24 28 31 29 26 25 25 23 20 19 19 20 20 20 19 20 18 16 14 13 12 10 10 9 8 6 4 2 1 3 4 5 6 7 8 10 11 12 12 13 16 18 20 22
26 28 27 26 25 24 22 22 21 22 21 21 21 20 18 16 13 15 14 13 12 11 10 9 8 7 4 3 2 3 4 5 7 8 9 10 12 13 14 16 19 22 24 25
24 24 24 23 20 21 21 21 22 24 24 22 23 22 20 18 16 14 14 13 12 12 10 9 8 6 5 4 4 5 6 6 7 8 11 11 14 15 17 19 22 24 26 27
22 21 21 20 18 19 19 21 21 22 23 21 21 22 19 17 15 13 14 14 13 12 10 9 9 8 6 5 5 6 7 7 9 10 13 15 17 18 20 22 24 26 27 28

GFSNGP_850_spd_165.txt.gz
Wind_Speed
22 24 25 25 24 16 18 16 15 19 21 22 20 19 20 12 15 19 22 22 19 17 17 11 6 1 2 3 4 7 7 8 9 11 12 14 16 17 16 17 18 18 21 21
20 21 22 25 27 26 24 25 25 25 26 24 29 26 24 17 16 20 21 21 18 13 14 10 5 2 3 5 6 7 7 8 10 12 13 14 15 16 18 19 18 20 20 20
18 16 16 14 25 20 18 21 21 22 26 24 22 17 20 12 15 18 20 20 18 15 11 9 5 2 1 3 4 6 7 9 10 12 13 15 16 15 18 19 19 19 20 21
15 17 20 18 16 19 22 17 17 22 23 20 23 17 2 5 12 17 20 22 18 15 11 7 5 3 4 3 5 5 7 8 10 12 13 15 16 16 18 19 21 21 21 21
15 17 20 20 22 17 12 20 20 19 18 20 15 4 1 2 7 14 22 21 18 14 10 8 6 5 5 4 5 6 8 8 10 11 13 14 17 18 18 19 19 20 20 22
15 16 22 24 22 27 11 17 16 21 21 13 9 7 4 9 18 24 23 19 17 14 11 8 7 6 6 5 5 6 7 8 10 11 12 14 16 17 17 19 19 19 21 22
16 17 21 24 24 18 12 13 3 15 7 3 3 3 20 18 19 20 21 19 15 13 10 9 8 7 6 5 6 6 7 8 9 11 12 15 15 15 16 17 19 21 22 22
15 20 19 21 20 22 20 14 4 7 6 11 17 21 22 22 21 20 20 17 14 13 12 9 8 7 6 7 6 6 7 8 9 11 12 13 14 15 15 18 19 22 24 25
8 5 8 7 10 12 7 5 4 5 4 12 17 20 22 22 21 19 18 16 14 13 12 11 10 8 7 7 7 7 7 8 9 11 10 12 13 16 17 19 21 23 25 27
19 20 20 28 16 8 5 4 6 5 6 14 21 21 22 22 20 18 16 15 14 13 12 12 10 9 9 8 7 7 7 8 8 10 11 12 13 14 16 18 21 23 25 27
15 18 24 16 13 11 8 6 9 12 15 17 22 22 22 21 19 18 16 15 14 13 13 11 9 9 9 8 8 7 7 8 9 10 12 12 13 17 16 16 19 21 25 25
10 16 11 13 4 7 6 9 13 20 21 21 22 23 21 20 18 18 17 15 14 13 13 11 10 9 8 8 8 8 8 9 11 10 11 12 12 12 17 21 22 22 25 24
22 21 11 12 6 9 12 14 15 18 21 24 21 21 20 20 18 18 16 15 14 14 12 11 9 8 8 8 8 9 10 9 9 10 11 12 13 14 16 16 16 19 25 28
9 6 6 6 5 13 17 16 18 20 20 21 22 20 20 20 21 22 21 20 18 17 14 12 11 9 9 9 9 9 9 10 8 9 10 11 12 13 14 17 19 21 21 29
11 11 12 11 13 16 19 22 23 22 22 21 19 19 19 19 19 18 18 17 16 14 13 12 10 9 8 8 8 8 9 7 7 8 9 10 11 12 13 15 17 19 21 25
13 12 13 17 20 21 23 23 23 23 21 21 20 19 18 17 18 18 18 17 15 14 13 11 9 9 7 7 6 7 7 8 9 7 8 9 10 11 13 14 16 18 20 23
17 17 19 21 23 25 26 23 22 23 22 20 20 20 20 19 19 18 18 18 15 14 12 10 9 8 7 6 8 3 3 4 8 6 7 8 9 11 12 13 15 17 18 22
21 16 17 21 27 27 24 23 22 22 21 21 22 23 24 22 22 22 19 19 17 14 12 10 9 7 6 5 4 3 3 4 5 5 6 7 8 9 11 12 14 16 18 20
20 15 17 22 26 26 26 24 24 22 25 28 26 25 23 22 19 21 20 18 15 11 11 10 8 6 4 3 3 2 2 3 4 5 5 8 7 9 10 12 14 15 17 19
15 16 20 23 26 26 28 29 29 28 26 24 24 24 23 21 22 21 19 16 12 12 11 9 8 6 4 4 3 1 1 2 3 4 6 5 7 8 10 12 13 15 16 18
20 24 23 29 30 29 30 29 27 26 25 24 23 23 23 22 21 20 19 12 15 12 11 10 8 6 6 4 2 2 1 1 2 3 4 5 7 8 9 11 12 14 16 18
22 29 33 34 33 29 27 26 24 23 23 24 22 22 22 22 21 20 18 11 14 13 11 10 10 9 7 5 4 3 2 2 1 2 4 5 6 8 9 11 12 14 16 17
27 29 32 32 30 27 26 24 21 21 21 21 21 20 20 20 20 16 16 16 12 14 11 11 10 9 8 7 5 4 4 3 2 3 5 5 7 8 9 11 13 14 16 18
23 24 27 28 27 26 24 23 21 20 19 19 19 19 19 18 15 10 9 15 14 12 11 12 10 10 9 6 4 4 2 3 3 4 5 8 8 9 10 12 13 15 16 18
21 24 28 26 23 20 21 22 21 21 20 20 20 21 18 13 12 13 12 13 15 13 13 12 11 11 9 6 5 4 4 4 6 6 6 7 8 10 11 13 14 15 17 18
21 21 22 19 15 17 19 19 17 19 19 17 20 20 18 13 12 13 13 13 13 13 9 11 11 10 8 7 6 6 5 6 7 7 9 8 10 11 13 14 16 17 20 22
17 18 19 15 14 14 15 16 15 16 18 16 16 17 16 14 13 13 13 12 12 13 11 10 9 10 8 8 7 7 7 6 10 9 10 9 10 12 13 18 20 22 24 25

GFSNGP_850_spd_168.txt.gz
Wind_Speed
18 21 23 24 21 21 15 14 9 15 18 17 17 16 17 12 24 29 27 27 26 30 28 19 15 11 7 5 2 2 1 2 3 6 8 11 11 12 13 16 17 17 18 19
17 19 20 22 23 23 20 20 18 20 23 18 23 18 18 19 18 27 27 27 25 25 22 17 12 8 5 1 3 1 1 3 4 7 7 10 11 11 12 15 16 19 19 19
15 18 19 15 21 20 16 18 16 16 21 18 18 16 17 19 10 24 29 33 26 22 20 16 11 8 5 3 1 3 5 3 5 7 9 11 12 11 13 15 18 18 19 21
10 14 17 17 17 20 19 18 17 18 16 14 17 21 4 5 5 9 27 28 23 21 19 15 11 7 6 5 5 5 4 3 6 8 9 10 12 13 13 14 17 20 19 21
12 14 18 22 22 17 18 19 20 15 14 19 20 11 11 3 4 19 29 27 25 19 16 14 11 9 8 7 6 5 4 4 6 8 8 11 10 13 13 14 16 18 19 20
15 15 21 23 25 30 17 14 17 7 10 14 31 11 8 22 29 33 33 30 24 21 17 14 11 10 8 7 5 5 4 4 6 7 9 11 12 10 12 14 14 17 19 19
17 18 16 24 25 33 3 11 8 9 9 8 10 7 26 25 24 24 25 24 21 19 16 13 12 11 8 6 5 5 4 4 6 7 7 8 10 12 11 14 15 18 19 20
13 19 19 13 18 16 13 16 7 12 7 17 22 22 20 20 22 23 22 22 20 19 15 13 12 10 9 7 6 5 5 5 5 8 7 7 9 12 14 16 17 19 22 23
8 3 17 19 8 23 4 11 4 6 10 13 19 20 20 19 18 19 20 18 18 18 17 14 12 10 9 8 6 6 6 6 5 7 7 9 12 12 15 18 20 21 27 27
14 17 16 25 26 29 15 6 5 1 11 16 21 21 25 21 18 17 19 18 16 17 16 14 13 11 9 9 7 7 6 8 5 7 7 9 12 14 18 22 23 21 29 31
16 16 20 26 31 20 15 8 5 6 9 14 24 23 21 22 22 17 18 17 17 17 17 15 13 11 9 10 8 8 5 7 6 6 8 9 14 16 19 23 24 23 29 31
12 20 15 24 21 6 8 15 10 10 14 18 23 27 26 22 21 20 19 18 18 18 17 15 13 11 10 9 12 8 7 4 8 7 8 9 9 10 13 17 18 19 25 27
20 24 33 22 9 8 6 10 12 14 18 21 21 25 25 25 22 21 20 19 19 19 18 16 14 13 11 10 9 10 9 6 6 7 8 9 10 12 13 14 13 15 21 27
27 24 21 9 4 7 6 11 17 17 18 20 23 22 23 24 26 27 26 25 24 23 20 15 13 12 11 10 9 9 8 8 7 8 9 10 11 12 13 16 19 20 20 25
23 19 14 7 1 8 14 17 20 22 22 23 23 24 26 27 28 28 26 24 21 18 16 15 14 12 11 10 9 8 7 7 7 8 10 10 9 10 11 14 16 18 22 26
8 23 12 11 7 17 17 19 23 25 24 24 25 23 22 21 23 24 23 21 20 19 17 15 14 12 10 10 8 5 6 5 6 5 6 5 7 9 10 13 15 18 20 26
11 11 10 13 17 22 21 23 25 26 25 25 24 24 22 21 20 20 20 21 17 15 16 14 12 11 8 10 11 2 1 3 5 3 4 6 5 8 10 11 14 16 18 21
22 18 19 17 19 24 23 25 26 26 26 25 25 25 25 24 25 25 23 20 18 16 15 14 12 10 10 9 6 5 3 1 1 2 4 4 6 7 10 12 13 16 18 20
29 18 17 16 20 25 27 26 25 25 26 28 29 29 26 25 23 22 20 20 19 17 14 13 12 10 8 7 7 5 4 3 1 4 1 4 5 6 9 11 13 15 18 20
22 21 20 18 19 26 27 26 29 29 29 30 28 28 27 23 20 20 19 18 14 10 11 13 12 10 8 9 7 5 4 2 1 3 6 2 7 5 9 12 13 15 17 19
21 20 19 16 21 27 30 31 32 29 29 26 25 25 23 21 19 19 20 17 18 14 14 13 11 9 8 8 7 8 6 3 3 3 5 5 6 7 9 12 15 14 16 19
14 18 18 20 30 30 29 29 27 27 25 25 23 22 21 20 21 20 18 12 15 18 13 13 14 13 11 9 9 10 6 6 5 3 5 6 7 8 9 11 15 15 17 20
12 17 23 30 31 29 28 26 24 23 23 23 22 21 20 19 21 23 21 17 15 16 14 15 14 11 11 11 11 10 8 6 6 5 6 10 7 9 10 12 16 17 18 22
19 23 26 27 27 26 26 24 21 21 20 19 18 17 19 19 19 15 12 17 15 14 18 16 11 12 13 12 10 9 7 6 5 6 7 9 9 11 12 13 18 19 20 21
17 20 22 24 24 23 21 22 21 20 19 19 18 19 17 15 15 17 20 18 17 17 19 16 12 12 13 11 10 9 8 6 10 11 9 8 9 11 14 15 19 22 21 23
18 20 22 22 19 18 19 20 19 20 20 19 20 21 18 16 17 19 18 17 14 18 18 13 13 13 14 12 10 10 7 8 10 9 9 8 10 14 14 18 21 22 23 25
16 21 21 17 14 15 16 17 16 18 19 16 18 20 20 19 18 17 15 15 13 17 15 14 12 13 11 8 10 8 7 7 8 11 13 14 11 14 17 19 22 23 24 26

GFSNGP_850_spd_171.txt.gz
Wind_Speed
15 17 12 14 14 12 7 7 5 14 12 13 10 8 18 15 20 25 29 30 36 36 34 29 23 18 15 11 9 7 5 5 4 6 7 7 6 6 7 11 12 16 14 14
9 13 15 15 13 15 11 8 13 13 15 10 16 24 22 16 20 23 33 40 42 40 35 28 21 18 14 11 9 7 6 5 4 4 4 6 8 7 9 10 12 14 14 17
8 6 7 5 11 8 7 6 8 9 15 14 14 12 23 25 24 19 37 42 44 41 35 26 19 16 13 11 8 7 5 2 3 2 4 7 9 9 8 9 13 16 17 17
3 2 3 8 9 10 11 14 12 12 11 13 6 15 7 4 6 25 36 40 41 37 31 25 20 16 13 9 11 10 6 3 4 5 4 8 6 9 6 10 14 16 17 15
2 3 10 15 19 4 13 17 19 14 9 5 16 5 19 4 5 21 32 34 35 31 29 25 23 18 14 13 11 8 5 1 4 4 4 8 6 7 8 11 13 15 15 15
2 5 10 20 11 14 5 9 5 4 4 4 11 4 2 14 21 28 29 31 32 25 22 22 21 17 18 15 10 7 4 3 4 5 4 7 7 6 9 12 12 13 15 16
12 7 11 9 10 25 15 10 14 19 12 7 4 7 23 24 23 21 27 30 27 26 26 23 23 21 18 12 9 8 7 3 5 4 2 5 7 8 10 10 12 16 18 18
2 6 13 11 15 6 3 9 16 19 7 17 23 28 22 21 29 27 25 25 26 26 23 22 21 18 15 13 13 11 8 4 5 3 2 5 8 9 12 14 14 18 22 24
4 5 7 13 18 29 23 22 22 22 11 20 29 27 27 27 26 25 28 27 25 24 24 22 19 17 15 12 12 12 9 5 6 3 3 6 8 10 15 17 18 21 25 29
4 3 5 8 15 14 22 18 12 2 19 26 28 30 29 28 26 28 26 28 27 26 23 21 19 15 17 13 13 11 12 6 5 6 1 5 8 11 15 18 21 23 26 29
12 10 11 12 14 24 25 11 3 8 22 26 32 30 31 31 30 30 27 24 23 24 23 20 16 17 19 14 13 12 15 10 6 6 3 3 7 12 16 18 20 20 23 25
7 11 17 18 15 17 16 16 16 10 10 24 33 33 33 32 30 27 24 25 25 20 22 19 18 18 21 17 13 12 13 10 8 6 5 4 4 6 6 9 11 14 17 22
24 34 28 22 23 21 15 18 13 15 16 26 29 33 31 30 28 27 27 28 22 22 22 21 20 19 18 20 17 12 10 10 7 6 5 5 5 5 7 8 7 8 13 20
28 25 15 14 11 6 15 16 15 17 19 18 20 22 28 29 27 28 26 23 23 24 22 20 17 16 16 17 16 12 10 9 7 6 5 5 4 4 6 9 12 14 16 20
30 27 20 15 7 12 16 16 20 23 25 28 31 34 30 29 29 27 24 24 24 22 20 18 17 16 16 14 12 10 9 8 7 4 3 3 3 4 6 8 11 14 17 20
11 16 18 12 20 17 19 21 25 28 31 32 31 29 26 26 26 25 24 25 24 23 20 19 18 17 16 15 13 10 8 7 4 2 1 1 3 5 7 9 10 13 17 20
18 20 21 20 21 23 24 25 29 31 29 28 28 26 26 26 25 26 26 25 22 20 20 19 17 16 14 13 12 11 7 5 5 2 2 1 3 6 8 10 11 13 16 19
32 20 19 23 27 24 26 28 29 28 27 26 26 25 25 25 28 30 28 26 23 22 20 19 17 16 15 14 11 9 8 6 5 5 4 3 3 6 9 10 12 14 16 19
35 33 26 21 23 22 28 30 28 25 25 26 24 24 23 23 25 25 25 25 24 23 22 20 18 18 17 15 14 13 11 9 8 6 7 7 6 7 8 11 13 15 16 18
15 25 23 24 24 21 26 28 24 28 27 26 24 25 25 23 21 21 22 23 21 17 18 19 19 18 16 15 15 13 10 10 11 9 8 9 9 8 9 11 13 15 17 18
8 23 28 26 23 21 24 26 27 30 29 26 25 26 25 22 21 20 22 24 23 21 18 18 20 17 15 15 16 14 10 10 12 12 10 9 9 9 11 12 14 14 18 19
15 21 22 22 20 24 25 25 26 27 27 26 24 24 25 24 22 21 20 21 20 22 18 18 20 17 15 16 17 16 13 13 12 11 12 11 11 12 11 12 13 16 18 21
7 10 13 15 19 25 26 23 24 26 24 25 25 25 25 22 22 24 26 22 18 17 17 18 19 16 14 15 18 16 15 14 13 12 12 11 10 11 11 12 15 17 20 23
8 13 14 18 23 24 25 25 24 23 21 21 21 20 21 22 21 21 20 19 15 15 19 20 18 17 17 19 18 17 15 12 10 10 10 11 12 11 13 14 17 18 21 24
10 14 17 21 23 23 23 23 22 21 21 20 20 20 19 17 17 20 21 18 17 17 18 20 18 16 17 20 18 15 13 12 12 10 11 14 13 14 13 17 18 19 22 24
11 14 16 19 20 20 21 21 21 21 21 21 21 20 19 17 17 20 19 17 17 16 18 20 17 16 16 19 17 14 12 13 13 11 12 10 11 14 16 17 18 19 22 24
10 12 15 15 15 16 15 18 19 19 19 19 18 20 19 19 19 18 18 18 18 19 19 18 15 11 14 18 16 12 10 9 9 9 11 12 15 14 16 18 19 22 23 25